Showing default

FLOCK 4Q 31, 58285

Orbit data source: Space-Track

FLOCK 4Q 31, 58285 is a payload satellite owned by Planet (US) in SSO that was launched on Sat, 11 Nov 2023 UTC via an FALCON 9 launch vehicle from the Air Force Western Test Range (AFWTR). Payload-class satellites include a variety of spacecraft equipped with specific instruments for various scientific and technological missions. These include communications satellites like Starlink; space stations such as the ISS; scientific satellites like the Hubble; Earth observation satellites from companies like Planet Labs, Umbra, and HawkEye 360; GPS; miniature CubeSats for education and research; and military/defense satellites.

Loading next visibility...
Identifier
58285, 2023-174AF
Orbit
SSO
Country
Flag of USUS
Related business
Manufacturer
Planet
Mission
Operational Commercial Imaging
Bus & Motor
CUBESAT 3U, Unknown motor
Mass
5.7 kg wet, 5.7 kg dry
Launch date (UTC)
2023-11-11 (2 years ago)
Launch vehicle
FALCON 9
Launch site
Air Force Western Test Range (AFWTR)
Object type
Payload
Rocket body
Debris
Shape & HBR
Box + 2 Pan, 1.0 m
Radar Cross Section
0.072 m², Medium (>0.1 m² and < 1m²)

Expand to show TLE details & history
Last TLE update: 9 hours ago

TLE from 9 hours ago
0 FLOCK 4Q 31
1 58285U 23174AF  25291.17251635  .00033468  00000-0  82527-3 0  9995
2 58285  97.4130  12.3247 0006939 306.1436  53.9167 15.40456674108320
Epoch: 2025-10-18T04:08Z
TLE epoch observation values (Epoch: 2025-10-18T04:08:25.412Z)
Latitude
-0.00009°
Longitude
-76.68852°
Altitude
445.091 km
Speed
7.647 km/s
True Right ascension
00h 49m 17s
True Declination
0° 00' 00"
Sunlit
Object was in full shadow at epoch
Visualization orbit readout
Latitude
Unknown
Longitude
Unknown
Altitude
Unknown
Speed
Unknown
Apparent Right ascension
Unknown
Apparent Declination
Unknown
Sunlit
N/A
Visualization observer readout
Local Sidereal Time
07:49:03
Azimuth
Unknown
Elevation
Unknown
Doppler factor
Unknown
Orbital elements
Apogee altitude
446.432 km
Perigee altitude
436.967 km
Semi-major axis
6,819.836 km
Eccentricity
0.00069
Inclination
97.413°
RAAN
12.3247°
Arg. of periapsis
306.1436°
True anomaly
53.98099°
Mean anomaly
53.9167°
Eccentric anomaly
53.94884°
Mean motion
3.85374 °/min
Orbital period
93.42 mins
BSTAR
0.00082527
Loading maneuver chart data...
Computing Atmospheric mass density...

Documentation

Showing up to 5 results
|